FLOCK 2K-47 (42854 NORAD) Tracking and Keplerian Element Data

This shows tracking and keplerian element data for the satellite.

Feedback or suggestion? Click here.




ElementValue
Catalog42854
NameFLOCK 2K-47
Epoch Orbit3279
Epoch Day45.46358623
Epoch Year2018
RAAN308.2181
Inclination96.9924
Eccentricity0.0009954
Argument of Perigee186.9744
Mean Anonmoly173.1364
Mean Motion15.35622463
Decay Rate7.699E-05
L11 42854U 17042AF 18045.46358623 .00007699 00000-0 22413-3 0 9998
L22 42854 96.9924 308.2181 0009954 186.9744 173.1364 15.35622463 32796

Live tracking and technical data element details for FLOCK 2K-47 (NORAD 42854). FLOCK 2K-47 can be tracked NOW for your location showing map with azimuth and elevation plus other details from your city location.

Track the satellite on the map from your city or location and see movement details for azimuth, elevation, latitude, longitude, range, height, and movement on the map or in text.







IsCatalogInMostPopularTable: catalog: 42854, numindb: 132
Update: records affected: 1



GetName: 42854 FLOCK 2K-47

Hit Count: updated at: Fri, 16 Nov 2018 12:29:47 GMT